Location: Rock River
(41.7433°N, 105.9768°W)
Time: 05:48:37
(UTC+00:00)

Vanguard 1 - Pass Details

Date: 31 May 2022
Orbit: 649 x 3833 km, 34.2° (Epoch: 04 July)

Event Time Altitude Azimuth Distance (km) Brightness Sun altitude
Rises 08:42:10 0° 256° (WSW) 5,131 - -22.2°
Reaches altitude 10° 08:44:56 10° 253° (WSW) 4,463 - -22.0°
Exits shadow 08:44:59 10° 253° (WSW) 4,452 13.0 -22.0°
Maximum altitude 08:58:19 67° 174° (S) 3,136 12.3 -20.8°
Drops below altitude 10° 09:20:25 10° 99° (E) 6,907 14.7 -18.7°
Sets 09:26:01 0° 97° (E) 7,973 15.1 -18.1°
